Regional Weather Roundup
Issued by NWS

Home | Current Version | Previous Version | Text Only | Print | Product List | Glossary Off
Versions: 1 2 3 4 5 6 7 8 9 10 11 12 13 14 15 16 17 18 19 20 21 22 23 24 25 26 27 28 29 30 31 32 33 34 35 36 37 38 39 40 41 42 43 44 45 46 47 48 49 50

000
ASUS45 KSLC 212310
RWRUT

UTAH REGIONAL WEATHER ROUNDUP
NATIONAL WEATHER SERVICE SALT LAKE CITY UT
500 PM MDT THU AUG 21 2014

UTZ001>011-023>025-220000-

NORTHERN UTAH

CITY           SKY/WX    TMP DP  RH WIND       PRES   REMARKS
HILL AFB       PTSUNNY   77  45  32 VRB2      30.07F
LOGAN          SUNNY     76  48  37 S6        30.05F
OGDEN          MOSUNNY   78  43  28 VRB6      30.04F
PROVO AIRPORT  PTSUNNY   79  50  36 NW7       30.05F
SALT LAKE CITY PTSUNNY   79  43  27 S9        30.02F
VERNAL         CLOUDY    77  47  34 S3        30.10F
WENDOVER       MOSUNNY   84  43  23 SE12      29.98F
HEBER CITY     PTSUNNY   77  43  29 N10       30.11F
WEST JORDAN    CLOUDY    77  52  41 SW15      30.08R

$$

UTZ012>022-026-027-220000-

SOUTHERN UTAH

CITY           SKY/WX    TMP DP  RH WIND       PRES   REMARKS
BRYCE CANYON   CLOUDY    56  47  71 N15       30.31S
CEDAR CITY     PTSUNNY   75  47  36 NW7       30.13F
MILFORD        PTSUNNY   78  45  30 S20       30.09R
MOAB/CYNLANDS  SUNNY     82  36  19 W5        30.04F
PRICE          MOSUNNY   79  42  26 E6        30.13F
ST GEORGE      MOCLDY    82  52  34 S25       29.99F
KANAB            N/A     79  45  29 S10       30.13F

$$

REGIONAL REPORTS     COLORADO/ARIZONA

CITY           SKY/WX    TMP DP  RH WIND       PRES   REMARKS
CRAIG, CO      CLOUDY    74  46  36 W12       30.18S
GRAND JUNCTION CLOUDY    80  42  25 NE6       30.09F
RIFLE          CLOUDY    78  36  21 W14       30.13F
MONTROSE       CLOUDY    78  43  28 NW12      30.16R
CORTEZ         SUNNY     79  34  19 W12       30.16F
PAGE, AZ       PTSUNNY   84  43  23 NW3       30.05F
GRAND CANYON   CLOUDY    55  52  89 W6        30.27F
KINGMAN        CLOUDY    70  58  65 NW5       30.07F
FLAGSTAFF      RAIN      54  51  90 NW7       30.29F FOG

$$

REGIONAL REPORTS    NEVADA/IDAHO/WYOMING

CITY           SKY/WX    TMP DP  RH WIND       PRES   REMARKS
LAS VEGAS, NV  CLOUDY    83  51  33 SW17      29.96R
ELY            PTSUNNY   77  35  21 S12       30.12F
ELKO           MOSUNNY   84  33  16 W15G24    29.98F
POCATELLO, ID  MOSUNNY   78  48  34 SW14      30.02F
BURLEY         PTSUNNY   74  54  49 SE5       29.99F
EVANSTON, WY   MOSUNNY   69  42  37 W14       30.21F
ROCK SPRINGS   CLOUDY    56  50  80 S14       30.23F

$$


USA.gov is the U.S. government's official web portal to all federal, state and local government web resources and services.